Location: Chassagnes
(44.4047°N, 4.1657°E)
Time: 11:32:49
(UTC+00:00)

USA 308 - Pass Details

Date: 27 October 2020
Orbit: 571 x 578 km, 54.0° (Epoch: 23 November)

Event Time Altitude Azimuth Distance (km) Brightness Sun altitude
Rises 16:58:59 0° 300° (WNW) 2,787 7.2 -4.2°
Reaches altitude 10° 17:01:35 10° 314° (NW) 1,887 6.0 -4.7°
Maximum altitude 17:05:08 25° 10° (N) 1,189 4.3 -5.3°
Drops below altitude 10° 17:08:41 10° 67° (ENE) 1,880 4.9 -5.9°
Enters shadow 17:09:21 - 71° (ENE) 2,098 5.1 -6.0°
